STARLINK-5743, 55597

Orbit data source: Space-Track

STARLINK-5743, 55597 is a payload satellite owned by SpaceX/Seattle (US) in LEO that was launched on Sun, 12 Feb 2023 UTC via an FALCON 9 launch vehicle from the Air Force Eastern Test Range (AFETR). Payload-class satellites include a variety of spacecraft equipped with specific instruments for various scientific and technological missions. These include communications satellites like Starlink; space stations such as the ISS; scientific satellites like the Hubble; Earth observation satellites from companies like Planet Labs, Umbra, and HawkEye 360; GPS; miniature CubeSats for education and research; and military/defense satellites.

Loading next visibility...
Identifier
55597, 2023-020AE
Orbit
LEO
Country
Flag of USUS
Related business
Manufacturer
SpaceX/Seattle
Mission
Operational spacecraft
Bus & Motor
STARLINK, Unknown motor
Mass
305 kg wet, ~290 kg dry
Launch date (UTC)
2023-02-12 (3 years ago)
Launch vehicle
FALCON 9
Launch site
Air Force Eastern Test Range (AFETR)
Object type
Payload
Rocket body
Debris
Shape & HBR
Unknown shape, 10.1 m
Radar Cross Section
Large (>1 m²)

Expand to show TLE details & history
Last TLE update: 18 hours ago

TLE from 18 hours ago
0 STARLINK-5743
1 55597U 23020AE  25340.74334740  .00001146  00000-0  99876-4 0  9999
2 55597  43.0024 137.0741 0001271 271.0223  89.0474 15.02534565155084
Epoch: 2025-12-06T17:50Z
TLE epoch observation values (Epoch: 2025-12-06T17:50:25.215Z)
Latitude
0.00001°
Longitude
153.70234°
Altitude
558.848 km
Speed
7.584 km/s
True Right ascension
09h 08m 17s
True Declination
0° 00' 00"
Sunlit
Object was in full shadow at epoch
Visualization orbit readout
Latitude
Unknown
Longitude
Unknown
Altitude
Unknown
Speed
Unknown
Apparent Right ascension
Unknown
Apparent Declination
Unknown
Sunlit
N/A
Visualization observer readout
Local Sidereal Time
09:33:07
Azimuth
Unknown
Elevation
Unknown
Doppler factor
Unknown
Orbital elements
Apogee altitude
561.889 km
Perigee altitude
560.126 km
Semi-major axis
6,939.144 km
Eccentricity
0.00013
Inclination
43.0024°
RAAN
137.0741°
Arg. of periapsis
271.0223°
True anomaly
89.06196°
Mean anomaly
89.0474°
Eccentric anomaly
89.05468°
Mean motion
3.75478 °/min
Orbital period
95.88 mins
BSTAR
0.000099876
Loading maneuver chart data...
Computing Atmospheric mass density...
Loading historical data...
Loading historical data...
Loading historical data...
Loading historical data...
Loading historical data...
Loading historical data...
Loading historical data...

Documentation

Showing up to 5 results
|